{"data":{"norad_id":45689,"intl_designator":"2020-035AJ","name":"STARLINK-1413","alt_names":[],"object_type":"PAYLOAD","status":"ACTIVE","operator":null,"country":"US","launch_date":"2020-06-04","launch_site_code":"AFETR","launch_vehicle":null,"mission":null,"orbit_class":"UNKNOWN","rcs_meters":null,"size_class":null,"mass_kg":null,"dimensions":null,"purposes":["comms"],"wikipedia_slug":null,"has_3d_model":false,"image_url":null,"decayed_at":null,"tle_current":{"epoch":"2026-05-25T01:37:11.870400Z","epoch_age_seconds":62525,"freshness":"FRESH","line1":"1 45689U 20035AJ  26145.06749850  .00039016  00000+0  11889-2 0  9996","line2":"2 45689  53.1584  54.2307 0003136 111.9197 248.2139 15.33614968330598","mean_motion":15.33614968,"eccentricity":0.0003136,"inclination_deg":53.1584,"raan_deg":54.2307,"arg_perigee_deg":111.9197,"mean_anomaly_deg":248.2139,"bstar":0.0011889,"rev_number":33059,"period_min":93.895797188124,"perigee_km":462.89149647054,"apogee_km":467.18353552697,"semimajor_km":6843.1745159988,"source":"CELESTRAK","updated_at":"2026-05-25T13:38:16.429477Z"}}}